Погода в Матади

Демократическая Республика Конго     5°50′27″S   13°28′14″E
темп.,
°C
ветер,
м/с
пор.,
м/с
влажн.,
%
обл.,
%
осадки,
мм/ч
давл.,
гПа
погр.,
м
27 ноября, сб
сб2701:00+23юз129599 1.4 101182
04:00+23ююз1292100 3.3 101149
07:00+22всв1197100 10.4 101277
10:00+23св1295100 6.3 1014207
13:00+22юв1197100 13.4 1012148
16:00+23зсз119394 0.6 1010195
19:00+22ю119643 0.6 101113
22:00+22ююв119863 0.0 101313
28 ноября, вс
вс2801:00+22юв019690 0.0 101123
04:00+21св009645 0.0 101112
07:00+23ю019197 0.0 1012146
10:00+28ююз1269100 0.0 1012820
13:00+31юз115630 0.0 10091400
16:00+31зюз115486 0.1 10071527
19:00+25зюз278495 1.0 1009189
22:00+24зюз259281 0.2 1012231
29 ноября, пн
пн2901:00+23юз2396100 1.6 1011124
04:00+23ююз129698 3.1 1011135
07:00+23ссв0095100 3.2 101294
10:00+27вюв1178100 0.0 1012587
13:00+30зюз116418 0.8 10101002
16:00+26сз1283100 6.1 100877
19:00+24зюз249177 9.3 1010159
22:00+23зюз2496100 0.1 1012275
30 ноября, вт
вт3001:00+23зюз1197100 0.1 101171
04:00+23ю1295100 1.4 101175
07:00+24ю129198 4.1 1013166
10:00+27юз117599 0.1 1013808
13:00+29зюз226788 1.6 10101070
16:00+28зюз2373100 3.4 1008964
19:00+25з1187100 3.6 101011
22:00+24зюз1189100 0.0 101111
1 декабря, ср
ср101:00+24зюз1192100 0.0 101014
04:00+23юз1193100 0.0 101020
07:00+24юз2292100 0.6 1012214
10:00+24юз1294100 4.4 1013204
13:00+26ююв118386 4.5 1010442
16:00+26юв2478100 0.0 1009544
19:00+24св008658 0.0 101011
22:00+23ссв1189100 0.0 101118